Change the Weather History Date:

Thursday, September 20, 2012

  Actual Average (KBFD) Record (KBFD)
Temperature  
Mean Temperature 50 °F 55 °F  
Max Temperature 64 °F 67 °F 81 °F (1978)
Min Temperature 37 °F 44 °F 25 °F (1979)
Degree Days  
Heating Degree Days 14 6  
Month to date heating degree days 69  
Since 1 July heating degree days 222  
Cooling Degree Days 0 0  
Month to date cooling degree days 13  
Year to date cooling degree days 190  
Moisture  
Dew Point 42 °F    
Average Humidity 70    
Maximum Humidity 93    
Minimum Humidity 45    
Precipitation  
Precipitation 0.00 in 0.14 in 0.74 in (1963)
Month to date precipitation 2.61  
Year to date precipitation 32.56  
Sea Level Pressure  
Sea Level Pressure 30.06 in    
Wind  
Wind Speed 6 mph ()    
Max Wind Speed 16 mph    
Max Gust Speed 23 mph    
Visibility 10.0 miles    
Events Rain    
T = Trace of Precipitation, MM = Missing Value Source: Averaged Metar Reports

Daily Weather History Graph

Daily Weather History Graph

Search for Another Location

Airport or City:

Trip Planner

Search our weather history database for the weather conditions in past years. The results will help you decide how hot, cold, wet, or windy it might be!

Date:

Astronomy

Sep. 20, 2012 Rise Set
Actual Time 6:59 AM EDT 7:13 PM EDT
Civil Twilight 6:31 AM EDT 7:41 PM EDT
Nautical Twilight 5:58 AM EDT 8:14 PM EDT
Astronomical Twilight 5:24 AM EDT 8:47 PM EDT
Moon 12:21 PM EDT (9/20) 10:06 PM EDT (9/20)
Length of Visible Light 13h 10m
Length of Day
12h 14m
Waxing Crescent, 26% of the Moon is Illuminated
Sep 20
Waxing Crescent
Sep 22
First Quarter
Sep 29
Full
Oct 8
Last Quarter
Oct 15
New

Hourly Weather History & Observations

Time (EDT) Temp. Windchill Dew Point Humidity Pressure Visibility Wind Dir Wind Speed Gust Speed Precip Events Conditions
12:35 AM 41.0 °F 38.0 °F 37.4 °F 87% 30.15 in 10.0 mi South 4.6 mph - N/A   Clear
12:55 AM 41.0 °F - 37.4 °F 87% 30.15 in 10.0 mi Calm Calm - N/A   Clear
1:15 AM 41.0 °F - 37.4 °F 87% 30.15 in 10.0 mi Calm Calm - N/A   Clear
1:35 AM 41.0 °F 39.0 °F 37.4 °F 87% 30.15 in 10.0 mi South 3.5 mph - N/A   Clear
1:55 AM 39.2 °F - 37.4 °F 93% 30.14 in 10.0 mi Calm Calm - N/A   Clear
2:15 AM 41.0 °F 38.0 °F 37.4 °F 87% 30.13 in 10.0 mi South 4.6 mph - N/A   Clear
2:35 AM 41.0 °F 38.0 °F 37.4 °F 87% 30.13 in 10.0 mi South 4.6 mph - N/A   Clear
2:55 AM 41.0 °F 39.0 °F 37.4 °F 87% 30.11 in 10.0 mi SSE 3.5 mph - N/A   Clear
3:15 AM 41.0 °F - 37.4 °F 87% 30.11 in 10.0 mi Calm Calm - N/A   Clear
3:35 AM 39.2 °F 37.0 °F 35.6 °F 87% 30.11 in 10.0 mi South 3.5 mph - N/A   Clear
3:55 AM 39.2 °F - 35.6 °F 87% 30.11 in 10.0 mi Calm Calm - N/A   Clear
4:15 AM 37.4 °F 34.9 °F 35.6 °F 93% 30.11 in 10.0 mi South 3.5 mph - N/A   Clear
4:35 AM 37.4 °F 34.9 °F 35.6 °F 93% 30.11 in 10.0 mi South 3.5 mph - N/A   Clear
4:55 AM 37.4 °F 34.9 °F 35.6 °F 93% 30.11 in 10.0 mi SSW 3.5 mph - N/A   Clear
5:15 AM 37.4 °F 32.8 °F 35.6 °F 93% 30.12 in 10.0 mi South 5.8 mph - N/A   Clear
5:35 AM 37.4 °F 33.8 °F 35.6 °F 93% 30.11 in 10.0 mi South 4.6 mph - N/A   Clear
6:15 AM 39.2 °F 35.9 °F 35.6 °F 87% 30.12 in 10.0 mi South 4.6 mph - N/A   Clear
6:35 AM 39.2 °F 35.9 °F 35.6 °F 87% 30.12 in 10.0 mi South 4.6 mph - N/A   Clear
6:55 AM 37.4 °F 34.9 °F 35.6 °F 93% 30.12 in 10.0 mi South 3.5 mph - N/A   Clear
7:15 AM 37.4 °F - 35.6 °F 93% 30.12 in 10.0 mi Calm Calm - N/A   Clear
7:35 AM 41.0 °F 38.0 °F 35.6 °F 81% 30.12 in 10.0 mi SSW 4.6 mph - N/A   Clear
7:55 AM 41.0 °F 39.0 °F 35.6 °F 81% 30.12 in 10.0 mi South 3.5 mph - N/A   Clear
8:15 AM 42.8 °F 38.6 °F 37.4 °F 81% 30.11 in 10.0 mi South 6.9 mph - N/A   Clear
8:35 AM 44.6 °F 40.7 °F 37.4 °F 76% 30.11 in 10.0 mi South 6.9 mph - N/A   Clear
8:55 AM 44.6 °F 39.7 °F 37.4 °F 76% 30.10 in 10.0 mi South 9.2 mph - N/A   Clear
9:15 AM 46.4 °F 42.4 °F 39.2 °F 76% 30.10 in 10.0 mi South 8.1 mph - N/A   Clear
9:35 AM 48.2 °F - 39.2 °F 71% 30.09 in 10.0 mi South 9.2 mph - N/A   Clear
9:55 AM 50.0 °F - 41.0 °F 71% 30.08 in 10.0 mi SSW 9.2 mph - N/A   Clear
10:15 AM 50.0 °F - 41.0 °F 71% 30.07 in 10.0 mi South 9.2 mph 19.6 mph N/A   Clear
10:35 AM 51.8 °F - 41.0 °F 67% 30.07 in 10.0 mi South 15.0 mph 20.7 mph N/A   Clear
10:55 AM 53.6 °F - 42.8 °F 67% 30.07 in 10.0 mi SSW 12.7 mph 19.6 mph N/A   Clear
11:15 AM 53.6 °F - 42.8 °F 67% 30.07 in 10.0 mi South 12.7 mph 20.7 mph N/A   Clear
11:35 AM 55.4 °F - 42.8 °F 63% 30.05 in 10.0 mi South 13.8 mph 23.0 mph N/A   Clear
11:55 AM 57.2 °F - 42.8 °F 59% 30.04 in 10.0 mi South 16.1 mph 20.7 mph N/A   Clear
12:15 PM 59.0 °F - 42.8 °F 55% 30.04 in 10.0 mi South 11.5 mph 18.4 mph N/A   Clear
12:35 PM 59.0 °F - 42.8 °F 55% 30.04 in 10.0 mi South 12.7 mph - N/A   Clear
12:55 PM 59.0 °F - 42.8 °F 55% 30.04 in 10.0 mi South 9.2 mph - N/A   Clear
1:15 PM 60.8 °F - 44.6 °F 55% 30.04 in 10.0 mi South 11.5 mph 19.6 mph N/A   Clear
1:35 PM 62.6 °F - 44.6 °F 52% 30.04 in 10.0 mi South 11.5 mph 16.1 mph N/A   Clear
1:55 PM 62.6 °F - 42.8 °F 48% 30.03 in 10.0 mi South 11.5 mph - N/A   Clear
2:15 PM 62.6 °F - 42.8 °F 48% 30.03 in 10.0 mi South 11.5 mph 17.3 mph N/A   Clear
2:35 PM 64.4 °F - 44.6 °F 49% 30.03 in 10.0 mi South 11.5 mph 17.3 mph N/A   Clear
2:55 PM 64.4 °F - 44.6 °F 49% 30.02 in 10.0 mi South 10.4 mph 19.6 mph N/A   Clear
3:15 PM 64.4 °F - 42.8 °F 45% 30.01 in 10.0 mi South 9.2 mph - N/A   Clear
3:35 PM 64.4 °F - 44.6 °F 49% 30.01 in 10.0 mi South 10.4 mph - N/A   Clear
3:55 PM 64.4 °F - 42.8 °F 45% 30.00 in 10.0 mi South 12.7 mph 18.4 mph N/A   Clear
4:15 PM 64.4 °F - 44.6 °F 49% 30.00 in 10.0 mi South 8.1 mph 19.6 mph N/A   Clear
4:35 PM 64.4 °F - 42.8 °F 45% 29.99 in 10.0 mi South 8.1 mph 16.1 mph N/A   Clear
4:55 PM 64.4 °F - 44.6 °F 49% 29.98 in 10.0 mi South 6.9 mph - N/A   Clear
5:15 PM 64.4 °F - 44.6 °F 49% 29.98 in 10.0 mi South 10.4 mph 16.1 mph N/A   Clear
5:35 PM 62.6 °F - 44.6 °F 52% 29.99 in 10.0 mi South 10.4 mph - N/A   Clear
5:55 PM 62.6 °F - 44.6 °F 52% 29.99 in 10.0 mi South 10.4 mph - N/A   Clear
6:15 PM 60.8 °F - 46.4 °F 59% 29.99 in 10.0 mi SSE 6.9 mph - N/A   Scattered Clouds
6:35 PM 60.8 °F - 46.4 °F 59% 29.99 in 10.0 mi South 9.2 mph 16.1 mph N/A   Scattered Clouds
6:55 PM 59.0 °F - 46.4 °F 63% 29.99 in 10.0 mi South 10.4 mph - N/A   Scattered Clouds
7:15 PM 59.0 °F - 44.6 °F 59% 29.99 in 10.0 mi South 10.4 mph - N/A   Scattered Clouds
7:35 PM 59.0 °F - 44.6 °F 59% 29.99 in 10.0 mi South 12.7 mph 17.3 mph N/A   Mostly Cloudy
7:55 PM 59.0 °F - 44.6 °F 59% 30.00 in 10.0 mi South 11.5 mph - N/A   Mostly Cloudy
8:15 PM 59.0 °F - 44.6 °F 59% 30.00 in 10.0 mi South 9.2 mph - N/A   Scattered Clouds
8:35 PM 59.0 °F - 46.4 °F 63% 30.00 in 10.0 mi South 6.9 mph 16.1 mph N/A   Mostly Cloudy
8:55 PM 59.0 °F - 46.4 °F 63% 30.00 in 10.0 mi South 9.2 mph 16.1 mph N/A   Overcast
9:15 PM 57.2 °F - 46.4 °F 67% 30.00 in 10.0 mi South 12.7 mph 18.4 mph N/A   Overcast
9:35 PM 55.4 °F - 46.4 °F 72% 30.01 in 10.0 mi South 10.4 mph - N/A   Mostly Cloudy
9:55 PM 55.4 °F - 46.4 °F 72% 30.01 in 10.0 mi South 11.5 mph 18.4 mph N/A   Overcast
10:15 PM 55.4 °F - 46.4 °F 72% 30.00 in 10.0 mi South 9.2 mph - N/A   Overcast
10:35 PM 55.4 °F - 48.2 °F 77% 30.01 in 10.0 mi South 10.4 mph 18.4 mph N/A Rain Rain
10:55 PM 55.4 °F - 50.0 °F 82% 30.01 in 10.0 mi South 8.1 mph - N/A   Overcast
11:15 PM 55.4 °F - 50.0 °F 82% 30.01 in 10.0 mi South 9.2 mph - N/A   Mostly Cloudy
11:35 PM 55.4 °F - 50.0 °F 82% 30.01 in 10.0 mi South 9.2 mph - N/A   Mostly Cloudy
11:55 PM 55.4 °F - 50.0 °F 82% 30.01 in 10.0 mi South 10.4 mph - N/A   Overcast